Massena, NY

8:14 AM EDT on August 19, 2017 (GMT -0400)
Massena International-Richards

Weather History for KMSS - January, 2014

Change the Weather History Date:

Saturday, January 11, 2014

  Actual Average Record
Temperature  
Mean Temperature 38 °F 14 °F  
Max Temperature 51 °F 24 °F 58 °F (1975)
Min Temperature 25 °F 5 °F -33 °F (1968)
Degree Days  
Heating Degree Days 27 51  
Month to date heating degree days 588 548  
Since 1 July heating degree days 3799 3647  
Cooling Degree Days 0 0  
Month to date cooling degree days 0  
Year to date cooling degree days 0  
Moisture  
Dew Point 34 °F    
Average Humidity 89    
Maximum Humidity 96    
Minimum Humidity 81    
Precipitation  
Precipitation 0.22 in 0.07 in 0.74 in (1983)
Month to date precipitation 1.29 0.83  
Year to date precipitation 1.29 0.83  
Sea Level Pressure  
Sea Level Pressure 29.47 in    
Wind  
Wind Speed 9 mph (East)    
Max Wind Speed 32 mph    
Max Gust Speed 41 mph    
Visibility 4 miles    
Events Rain    
T = Trace of Precipitation, MM = Missing Value Source: NWS Daily Summary

Daily Weather History Graph

Daily Weather History Graph

Search for Another Location

Airport or City:

Trip Planner

Search our weather history database for the weather conditions in past years. The results will help you decide how hot, cold, wet, or windy it might be!

Date:

Astronomy

Jan. 11, 2014 Rise Set
Actual Time 7:35 AM EST 4:39 PM EST
Civil Twilight 7:02 AM EST 5:12 PM EST
Nautical Twilight 6:26 AM EST 5:48 PM EST
Astronomical Twilight 5:50 AM EST 6:24 PM EST
Moon 1:23 PM EST (1/11) 3:35 AM EST (1/11)
Length of Visible Light 10h 09m
Length of Day
9h 03m
Waxing Gibbous, 83% of the Moon is Illuminated
Jan 11
Waxing Gibbous
Jan 15
Full
Jan 24
Last Quarter
Jan 30
New
Feb 6
First Quarter

Hourly Weather History & Observations

Time (EST) Temp. Windchill Dew Point Humidity Pressure Visibility Wind Dir Wind Speed Gust Speed Precip Events Conditions
12:53 AM 26.1 °F 21.9 °F 21.9 °F 84% 30.06 in 7.0 mi ENE 3.5 mph - N/A   Mostly Cloudy
1:01 AM 26.6 °F 21.2 °F 21.2 °F 80% 30.03 in 7.0 mi NE 4.6 mph - N/A   Mostly Cloudy
1:53 AM 25.0 °F 18.1 °F 21.0 °F 85% 30.02 in 7.0 mi ENE 5.8 mph - N/A   Partly Cloudy
2:53 AM 25.0 °F 16.3 °F 21.0 °F 85% 29.97 in 6.0 mi NE 8.1 mph - N/A   Clear
3:53 AM 28.0 °F 19.3 °F 24.1 °F 85% 29.91 in 3.0 mi NE 9.2 mph - 0.00 in Rain Light Freezing Rain
4:20 AM 28.4 °F 19.7 °F 24.8 °F 86% 29.86 in 2.5 mi ENE 9.2 mph - 0.00 in Rain Light Freezing Rain
4:38 AM 28.4 °F 19.1 °F 24.8 °F 86% 29.85 in 1.8 mi NE 10.4 mph - 0.00 in Rain Light Freezing Rain
4:48 AM 28.4 °F 20.4 °F 24.8 °F 86% 29.84 in 2.5 mi NE 8.1 mph - 0.00 in Rain Light Freezing Rain
4:53 AM 28.0 °F 19.3 °F 26.1 °F 92% 29.85 in 2.5 mi NE 9.2 mph - 0.01 in Rain Light Freezing Rain
5:01 AM 28.4 °F 19.1 °F 26.6 °F 93% 29.81 in 2.0 mi NE 10.4 mph - 0.01 in Rain Light Freezing Rain
5:11 AM 28.4 °F 19.1 °F 26.6 °F 93% 29.81 in 3.0 mi ENE 10.4 mph - 0.01 in Rain Light Freezing Rain
5:36 AM 28.4 °F 20.4 °F 26.6 °F 93% 29.78 in 3.0 mi ENE 8.1 mph - 0.01 in   Overcast
5:53 AM 28.9 °F 20.4 °F 26.1 °F 89% 29.78 in 3.0 mi ENE 9.2 mph - 0.01 in   Overcast
6:11 AM 28.4 °F 20.4 °F 26.6 °F 93% 29.75 in 3.0 mi ENE 8.1 mph - N/A   Overcast
6:41 AM 28.4 °F 20.4 °F 26.6 °F 93% 29.71 in 2.5 mi ENE 8.1 mph - N/A   Overcast
6:53 AM 28.9 °F 21.1 °F 26.1 °F 89% 29.72 in 3.0 mi ENE 8.1 mph - N/A   Overcast
7:09 AM 28.4 °F 21.2 °F 26.6 °F 93% 29.68 in 2.5 mi ENE 6.9 mph - N/A   Overcast
7:53 AM 30.0 °F 24.1 °F 28.0 °F 92% 29.68 in 2.0 mi ENE 5.8 mph - N/A   Overcast
8:03 AM 30.2 °F 23.4 °F 26.6 °F 86% 29.64 in 1.5 mi ENE 6.9 mph - N/A   Overcast
8:08 AM 30.2 °F 23.4 °F 26.6 °F 86% 29.63 in 1.5 mi ENE 6.9 mph - N/A   Overcast
8:53 AM 30.9 °F 27.5 °F 28.0 °F 89% 29.63 in 1.5 mi NNE 3.5 mph - 0.00 in   Overcast
9:53 AM 32.0 °F 28.7 °F 30.0 °F 92% 29.60 in 1.8 mi ENE 3.5 mph - N/A   Overcast
10:53 AM 33.1 °F - 30.9 °F 92% 29.56 in 1.5 mi Calm Calm - 0.00 in   Overcast
11:04 AM 32.0 °F - 30.2 °F 93% 29.53 in 1.0 mi Calm Calm - 0.04 in Rain Heavy Rain
11:11 AM 32.0 °F 26.4 °F 30.2 °F 93% 29.50 in 0.8 mi East 5.8 mph - 0.07 in Rain Rain
11:23 AM 33.8 °F - 32.0 °F 93% 29.50 in 1.0 mi Calm Calm - 0.08 in Rain Rain
11:53 AM 33.1 °F - 30.9 °F 92% 29.49 in 1.0 mi Calm Calm - 0.11 in Rain Light Rain
12:01 PM 33.8 °F 30.8 °F 30.2 °F 87% 29.45 in 1.0 mi East 3.5 mph - 0.01 in Rain Rain
12:03 PM 33.8 °F 30.8 °F 30.2 °F 87% 29.45 in 0.8 mi ESE 3.5 mph - 0.02 in Rain Rain
12:20 PM 33.8 °F - 33.8 °F 100% 29.43 in 0.8 mi Calm Calm - 0.05 in Rain Light Rain
12:27 PM 33.8 °F - 33.8 °F 100% 29.43 in 0.8 mi Calm Calm - 0.05 in Rain Light Rain
12:53 PM 34.0 °F - 33.1 °F 96% 29.41 in 0.8 mi Calm Calm - 0.05 in   Overcast
1:47 PM 46.4 °F 41.1 °F 44.6 °F 93% 29.32 in 1.5 mi South 11.5 mph - 0.03 in Rain Light Rain
1:49 PM 46.4 °F 41.1 °F 44.6 °F 93% 29.32 in 3.0 mi South 11.5 mph - 0.03 in Rain Light Rain
1:53 PM 46.9 °F - 45.0 °F 93% 29.33 in 8.0 mi South 11.5 mph - 0.03 in Rain Light Rain
2:53 PM 48.9 °F - 46.0 °F 90% 29.24 in 10.0 mi SE 15.0 mph 23.0 mph 0.00 in   Overcast
3:53 PM 46.9 °F - 44.1 °F 90% 29.24 in 9.0 mi Calm Calm - 0.00 in   Mostly Cloudy
4:07 PM 46.4 °F - 44.6 °F 93% 29.22 in 2.5 mi Calm Calm - N/A   Mostly Cloudy
4:15 PM 42.8 °F - 42.8 °F 100% 29.21 in 3.0 mi Calm Calm - N/A   Overcast
4:17 PM 41.0 °F - 41.0 °F 100% 29.21 in 1.8 mi Calm Calm - N/A   Overcast
4:21 PM 41.0 °F - 39.2 °F 93% 29.21 in 0.8 mi Calm Calm - N/A   Mostly Cloudy
4:53 PM 43.0 °F - 41.0 °F 93% 29.21 in 2.5 mi Calm Calm - N/A   Overcast
5:00 PM 39.2 °F - 39.2 °F 100% 29.19 in 10.0 mi Calm Calm - N/A   Overcast
5:22 PM 39.2 °F - 37.4 °F 93% 29.18 in 1.8 mi Calm Calm - N/A   Overcast
5:26 PM 39.2 °F - 37.4 °F 93% 29.18 in 0.8 mi Calm Calm - N/A   Overcast
5:53 PM 39.0 °F - 37.9 °F 96% 29.18 in 0.8 mi Calm Calm - N/A   Overcast
5:58 PM 39.2 °F - 37.4 °F 93% 29.18 in 1.5 mi Calm Calm - N/A   Overcast
6:01 PM 39.2 °F - 39.2 °F 100% 29.18 in 3.0 mi Calm Calm - N/A   Overcast
6:53 PM 48.9 °F - 45.0 °F 86% 29.15 in 10.0 mi SSW 17.3 mph 24.2 mph 0.01 in   Overcast
7:30 PM 50.0 °F - 44.6 °F 82% 29.13 in 10.0 mi SSW 20.7 mph 27.6 mph N/A   Overcast
7:53 PM 50.0 °F - 46.0 °F 86% 29.13 in 9.0 mi SW 26.5 mph 34.5 mph 0.00 in Rain Light Rain
8:05 PM 48.2 °F - 44.6 °F 87% 29.13 in 10.0 mi SW 19.6 mph 35.7 mph 0.00 in Rain Light Rain
8:20 PM 48.2 °F - 44.6 °F 87% 29.14 in 10.0 mi SW 17.3 mph 29.9 mph 0.00 in   Overcast
8:28 PM 48.2 °F - 44.6 °F 87% 29.14 in 10.0 mi SW 20.7 mph 28.8 mph 0.00 in   Overcast
8:53 PM 46.0 °F 38.3 °F 43.0 °F 89% 29.17 in 10.0 mi SW 20.7 mph 29.9 mph 0.00 in Rain Light Rain
9:04 PM 46.4 °F 39.8 °F 42.8 °F 87% 29.14 in 10.0 mi SW 16.1 mph 31.1 mph 0.00 in Rain Light Rain
9:36 PM 44.6 °F 36.1 °F 41.0 °F 87% 29.17 in 10.0 mi SW 21.9 mph 32.2 mph 0.00 in Rain Light Rain
9:53 PM 45.0 °F 35.8 °F 41.0 °F 86% 29.19 in 10.0 mi SW 26.5 mph 41.4 mph 0.00 in   Overcast
10:53 PM 43.0 °F 33.3 °F 37.9 °F 82% 29.22 in 10.0 mi SW 25.3 mph 33.4 mph N/A   Overcast
11:53 PM 41.0 °F 31.6 °F 36.0 °F 82% 29.25 in 10.0 mi SW 20.7 mph 35.7 mph N/A   Overcast